Le nostre stazioni meteo in Italia

Pubblicità
Il mio iltempo24.it
Geneve-Cointrin, Svizzera (6700): Temperatura & dewpoint: 13.06.2019 01:00:00 - 19.06.2019 01:00:00 (CEST)Geneve-Cointrin, Svizzera (6700): Temperatura 5cm: 13.06.2019 01:00:00 - 19.06.2019 01:00:00 (CEST)Geneve-Cointrin, Svizzera (6700): velocità del vento & gusts: 13.06.2019 01:00:00 - 19.06.2019 01:00:00 (CEST)Geneve-Cointrin, Svizzera (6700): direzione del vento: 13.06.2019 01:00:00 - 19.06.2019 01:00:00 (CEST)Geneve-Cointrin, Svizzera (6700): reduced air pressure: 13.06.2019 01:00:00 - 19.06.2019 01:00:00 (CEST)Geneve-Cointrin, Svizzera (6700): visibility: 13.06.2019 01:00:00 - 19.06.2019 01:00:00 (CEST)Geneve-Cointrin, Svizzera (6700): ore di luce: 13.06.2019 01:00:00 - 19.06.2019 01:00:00 (CEST)Geneve-Cointrin, Svizzera (6700): precipitazioni: 13.06.2019 01:00:00 - 19.06.2019 01:00:00 (CEST)
Data & Tempo tt [°C] td [°C] tt 5cm [°C] ff [km/h] ff [kn] fx [km/h] fx [kn] dd ppp [hPa] vv [km] sd [min] rr [mm]
19.06.2019 01:00:00 19,0 13,9 14,8 2 1 10 6 ENE 1013,3 - 0 0,0
19.06.2019 00:00:00 20,8 13,0 17,4 3 2 14 7 O 1013,2 - 0 0,0
18.06.2019 23:00:00 23,9 12,9 20,3 12 6 18 10 SO 1012,6 50 0 0,0
18.06.2019 22:00:00 23,8 15,4 20,7 10 5 21 11 S 1012,2 - 0 0,0
18.06.2019 21:00:00 25,8 15,2 23,0 13 7 28 15 SO 1011,6 - 12 0,0
18.06.2019 20:00:00 27,4 13,9 27,2 16 9 23 12 SO 1011,3 40 26 0,0
18.06.2019 19:00:00 27,6 11,7 27,2 11 6 18 10 SO 1011,2 - 3 0,0
18.06.2019 18:00:00 28,3 11,9 28,5 11 6 21 11 OSO 1011,0 - 42 0,0
18.06.2019 17:00:00 29,1 9,3 32,0 14 8 28 15 OSO 1011,3 40 52 0,0
18.06.2019 16:00:00 29,3 8,9 34,6 12 6 24 13 S 1011,8 - 30 0,0
18.06.2019 15:00:00 27,4 14,5 33,1 6 3 17 9 E 1012,7 - 42 0,0
18.06.2019 14:00:00 26,5 15,4 32,2 6 4 18 10 E 1013,3 40 51 0,0
18.06.2019 13:00:00 24,4 14,9 29,3 6 3 15 8 E 1014,1 - 14 0,0
18.06.2019 12:00:00 24,0 14,6 29,5 6 3 11 6 E 1014,5 - 27 0,0
18.06.2019 11:00:00 23,4 14,6 29,6 6 3 13 7 S 1014,8 40 60 0,0
18.06.2019 10:00:00 21,8 15,8 27,8 2 1 9 5 S 1015,5 - 60 0,0
18.06.2019 09:00:00 20,3 14,3 24,9 2 1 8 4 OSO 1016,2 - 60 0,0
18.06.2019 08:00:00 18,1 14,3 21,0 2 1 6 3 ESE 1016,7 40 60 0,0
18.06.2019 07:00:00 15,9 13,5 15,2 4 2 6 3 NO 1016,7 - 27 0,0
18.06.2019 06:00:00 14,4 13,0 12,7 2 1 5 3 N 1016,9 - 0 0,0
18.06.2019 05:00:00 14,7 13,5 12,1 3 1 8 4 S 1016,7 - 0 0,0
18.06.2019 04:00:00 14,6 13,2 12,9 5 3 6 4 OSO 1016,6 - 0 0,0
18.06.2019 03:00:00 15,4 14,1 12,6 2 1 7 4 ENE 1016,6 - 0 0,0
18.06.2019 02:00:00 16,3 14,8 13,5 3 1 6 3 ENE 1016,9 - 0 0,0
18.06.2019 01:00:00 17,3 14,7 14,1 5 3 8 5 S 1016,3 - 0 0,0
18.06.2019 00:00:00 17,8 15,1 14,4 5 3 11 6 NE 1016,1 - 0 0,0
17.06.2019 23:00:00 19,2 14,8 15,2 1 1 7 4 SO 1016,0 50 0 0,0
17.06.2019 22:00:00 20,2 14,2 16,3 4 2 11 6 NNE 1015,6 - 0 0,0
17.06.2019 21:00:00 22,0 13,8 19,1 3 2 9 5 N 1014,8 - 17 0,0
17.06.2019 20:00:00 24,7 13,0 25,9 6 3 14 8 NNE 1014,0 45 60 0,0
17.06.2019 19:00:00 25,6 9,8 27,9 10 5 19 10 NE 1014,0 - 60 0,0
17.06.2019 18:00:00 25,4 11,8 28,7 14 8 19 10 NE 1014,1 - 60 0,0
17.06.2019 17:00:00 25,0 13,2 30,6 9 5 18 10 NE 1014,6 50 60 0,0
17.06.2019 16:00:00 24,8 13,6 30,1 11 6 34 18 ENE 1015,3 - 60 0,0
17.06.2019 15:00:00 23,9 13,9 30,3 12 7 22 12 ENE 1015,8 - 60 0,0
17.06.2019 14:00:00 23,1 13,0 29,9 12 7 22 12 NNE 1016,2 45 60 0,0
17.06.2019 13:00:00 22,5 13,8 28,8 12 7 24 13 NNE 1016,5 - 60 0,0
17.06.2019 12:00:00 20,9 12,9 26,4 17 9 27 14 ENE 1017,1 - 60 0,0
17.06.2019 11:00:00 19,6 13,3 25,1 18 10 28 15 NE 1017,6 45 60 0,0
17.06.2019 10:00:00 18,3 12,7 22,9 13 7 22 12 NE 1017,9 - 60 0,0
17.06.2019 09:00:00 17,2 12,5 21,8 10 5 17 9 NE 1018,5 - 60 0,0
17.06.2019 08:00:00 16,2 12,9 19,4 3 2 6 4 ENE 1018,8 50 60 0,0
17.06.2019 07:00:00 13,2 11,4 13,2 1 1 6 4 NNO 1019,2 - 44 0,0
17.06.2019 06:00:00 12,1 10,7 9,2 1 0 5 3 OSO 1019,5 - 0 0,0
17.06.2019 05:00:00 12,1 10,9 9,8 3 2 6 3 NO 1019,6 - 0 0,0
17.06.2019 04:00:00 12,6 11,2 9,7 2 1 5 3 NO 1019,4 - 0 0,0
17.06.2019 03:00:00 13,5 11,6 10,8 4 2 6 4 O 1019,4 - 0 0,0
17.06.2019 02:00:00 13,8 12,0 11,0 3 2 5 3 O 1019,5 - 0 0,0
17.06.2019 01:00:00 14,4 12,0 12,1 2 1 4 2 NO 1019,4 - 0 0,0
17.06.2019 00:00:00 15,7 11,3 12,6 2 1 9 5 O 1019,4 - 0 0,0
16.06.2019 23:00:00 16,9 11,0 12,6 4 2 13 7 NNE 1019,1 40 0 0,0
16.06.2019 22:00:00 17,5 11,0 14,3 8 4 18 10 N 1018,9 - 0 0,0
16.06.2019 21:00:00 19,5 10,7 17,7 8 5 29 15 N 1018,5 - 49 0,0
16.06.2019 20:00:00 21,8 10,5 22,4 13 7 28 15 NNE 1018,2 40 60 0,0
16.06.2019 19:00:00 22,4 10,5 24,2 17 9 32 18 NNE 1018,2 - 60 0,0
16.06.2019 18:00:00 22,6 11,1 25,6 18 10 29 16 NE 1018,4 - 60 0,0
16.06.2019 17:00:00 22,7 10,9 26,3 16 9 29 16 NNE 1018,8 40 60 0,0
16.06.2019 16:00:00 22,2 11,3 27,7 18 10 29 15 NNE 1019,3 - 60 0,0
16.06.2019 15:00:00 22,0 10,9 27,2 12 6 26 14 NNE 1019,4 - 60 0,0
16.06.2019 14:00:00 21,1 11,8 27,0 18 10 26 14 NE 1019,9 35 60 0,0
16.06.2019 13:00:00 20,3 11,9 25,7 13 7 22 12 NNE 1020,6 - 60 0,0
16.06.2019 12:00:00 18,7 11,7 24,9 11 6 24 13 NE 1021,2 - 60 0,0
16.06.2019 11:00:00 17,6 11,8 22,9 13 7 23 12 NE 1021,6 25 60 0,0
16.06.2019 10:00:00 16,3 12,1 21,5 6 4 12 6 ENE 1022,0 - 60 0,0
16.06.2019 09:00:00 14,1 12,7 16,4 5 3 11 6 N 1022,5 - 10 0,0
16.06.2019 08:00:00 13,0 11,9 13,6 2 1 5 3 ONO 1022,6 18 48 0,0
16.06.2019 07:00:00 11,3 10,8 11,7 1 1 8 4 SSE 1022,6 - 41 0,0
16.06.2019 06:00:00 10,6 10,1 8,6 3 2 6 3 O 1022,7 - 0 0,0
16.06.2019 05:00:00 10,7 10,2 8,4 4 2 6 4 SSO 1022,4 - 0 0,0
16.06.2019 04:00:00 10,9 10,5 8,9 6 3 9 5 O 1022,4 - 0 0,0
16.06.2019 03:00:00 11,2 10,7 9,1 1 1 5 3 N 1022,3 - 0 0,0
16.06.2019 02:00:00 11,8 11,1 10,1 2 1 9 5 OSO 1022,1 - 0 0,0
16.06.2019 01:00:00 12,1 11,7 10,3 4 2 10 5 NNO 1021,7 - 0 0,0
16.06.2019 00:00:00 12,9 12,1 10,5 1 1 5 3 O 1021,3 - 0 0,0
15.06.2019 23:00:00 13,4 12,8 11,4 3 2 8 4 NO 1021,0 30 0 0,0
15.06.2019 22:00:00 14,4 13,4 13,8 4 2 9 5 N 1020,5 - 0 0,0
15.06.2019 21:00:00 15,2 12,8 14,5 4 2 16 9 OSO 1019,7 - 22 0,0
15.06.2019 20:00:00 15,7 13,2 16,1 12 6 19 10 O 1019,6 30 54 0,0
15.06.2019 19:00:00 15,0 13,5 15,3 3 1 25 13 O 1019,7 - 1 0,8
15.06.2019 18:00:00 13,9 12,5 13,1 17 9 71 39 SSE 1020,0 - 0 4,9
15.06.2019 17:00:00 13,6 11,7 13,4 55 30 79 43 SO 1018,3 30 0 11,4
15.06.2019 16:00:00 21,0 14,3 21,4 20 11 30 16 NE 1013,1 - 30 0,0
15.06.2019 15:00:00 23,0 13,2 28,5 13 7 23 12 NE 1014,0 - 60 0,0
15.06.2019 14:00:00 22,3 11,7 28,7 10 5 19 10 E 1014,7 70 60 0,0
15.06.2019 13:00:00 21,5 15,0 25,9 7 4 21 11 E 1015,6 - 37 0,0
15.06.2019 12:00:00 20,2 14,9 25,6 10 5 19 10 ESE 1016,0 - 60 0,0
15.06.2019 11:00:00 18,9 14,7 22,4 4 2 14 8 O 1016,3 40 54 0,0
15.06.2019 10:00:00 16,7 15,0 19,4 8 4 16 9 SSE 1017,3 - 15 0,0
15.06.2019 09:00:00 15,7 15,1 15,4 6 3 17 9 S 1017,2 - 0 0,7
15.06.2019 08:00:00 15,6 14,8 15,2 6 3 9 5 O 1016,7 20 0 1,2
15.06.2019 07:00:00 15,4 14,3 14,8 4 2 7 4 O 1016,2 - 0 1,1
15.06.2019 06:00:00 15,0 14,5 14,5 4 2 8 4 N 1015,8 - 0 1,0
15.06.2019 05:00:00 15,2 14,6 14,6 2 1 23 12 NNE 1015,2 - 0 0,5
15.06.2019 04:00:00 15,6 14,2 14,6 18 10 27 15 SSO 1015,2 - 0 2,7
15.06.2019 03:00:00 16,3 13,6 15,0 6 3 25 13 S 1013,9 - 0 0,4
15.06.2019 02:00:00 18,6 15,2 17,6 12 7 41 22 ONO 1012,4 - 0 0,0
15.06.2019 01:00:00 18,1 15,0 16,3 21 11 39 21 SO 1011,3 - 0 0,0
15.06.2019 00:00:00 18,6 14,8 16,7 14 8 23 12 OSO 1010,4 - 0 0,0
14.06.2019 23:00:00 18,8 15,8 16,5 12 7 17 9 SO 1009,7 30 0 0,0
14.06.2019 22:00:00 19,7 16,1 17,1 11 6 16 9 OSO 1008,8 - 0 0,0
14.06.2019 21:00:00 20,4 15,4 18,8 2 1 11 6 N 1008,4 - 0 0,0
14.06.2019 20:00:00 21,7 15,1 20,6 7 4 13 7 OSO 1009,3 20 0 0,0
14.06.2019 19:00:00 22,1 14,5 23,4 9 5 21 11 NNE 1009,2 - 36 0,0
14.06.2019 18:00:00 22,1 14,5 24,3 11 6 26 14 NE 1010,0 - 57 0,0
14.06.2019 17:00:00 21,5 14,5 24,2 11 6 28 15 NNE 1011,4 20 27 0,0
14.06.2019 16:00:00 20,6 14,2 25,4 13 7 24 13 NE 1012,2 - 55 0,0
14.06.2019 15:00:00 18,9 13,4 22,0 17 9 25 13 NE 1014,0 - 46 0,0
14.06.2019 14:00:00 17,1 13,4 18,2 5 3 20 11 N 1015,9 15 1 0,0
14.06.2019 13:00:00 15,9 13,0 17,1 3 2 16 9 NE 1016,7 - 0 0,1
14.06.2019 12:00:00 15,2 14,2 15,1 4 2 9 5 E 1017,8 - 0 0,1
14.06.2019 11:00:00 14,7 13,4 14,6 5 3 12 6 SE 1018,6 15 0 0,6
14.06.2019 10:00:00 14,4 13,3 14,2 8 5 14 8 O 1018,8 - 0 1,0
14.06.2019 09:00:00 14,5 13,4 13,8 10 5 24 13 OSO 1018,5 - 0 0,7
14.06.2019 08:00:00 14,2 12,2 13,7 9 5 22 12 NNO 1015,3 25 0 0,0
14.06.2019 07:00:00 13,6 11,8 12,9 4 2 7 4 NE 1015,1 - 0 0,0
14.06.2019 06:00:00 14,3 10,4 13,2 6 4 10 6 NO 1014,8 - 0 0,0
14.06.2019 05:00:00 14,0 10,4 13,3 5 3 10 5 O 1014,8 - 0 0,0
14.06.2019 04:00:00 13,8 9,7 11,7 3 2 11 6 SO 1014,4 - 0 0,0
14.06.2019 03:00:00 13,7 10,3 12,6 4 2 8 4 ONO 1015,0 - 0 0,0
14.06.2019 02:00:00 14,1 8,8 11,5 2 1 8 4 N 1015,2 - 0 0,0
14.06.2019 01:00:00 14,5 9,3 11,8 2 1 10 5 N 1015,4 - 0 0,0
14.06.2019 00:00:00 15,6 9,4 12,2 5 3 7 4 NO 1015,3 - 0 0,0
13.06.2019 23:00:00 16,8 8,8 12,1 2 1 10 6 NO 1014,6 75 0 0,0
13.06.2019 22:00:00 17,8 8,7 13,6 3 1 9 5 ENE 1013,9 - 0 0,0
13.06.2019 21:00:00 20,2 7,8 17,2 4 2 13 7 N 1012,8 - 48 0,0
13.06.2019 20:00:00 23,7 6,9 24,6 7 4 19 10 SO 1011,8 75 60 0,0
13.06.2019 19:00:00 24,6 5,2 26,7 11 6 22 12 S 1011,5 - 60 0,0
13.06.2019 18:00:00 25,6 4,1 27,4 11 6 26 14 SO 1011,7 - 60 0,0
13.06.2019 17:00:00 25,0 3,7 29,0 11 6 30 16 SO 1012,0 75 60 0,0
13.06.2019 16:00:00 24,9 5,2 28,7 11 6 22 12 SSO 1012,3 - 60 0,0
13.06.2019 15:00:00 23,9 2,6 29,0 11 6 21 12 SO 1012,7 - 60 0,0
13.06.2019 14:00:00 23,3 5,0 27,5 8 4 26 14 SO 1013,3 75 60 0,0
13.06.2019 13:00:00 22,0 2,7 26,7 10 5 24 13 SO 1014,1 - 60 0,0
13.06.2019 12:00:00 20,5 3,4 25,7 12 6 24 13 SSO 1014,8 - 60 0,0
13.06.2019 11:00:00 18,5 7,8 24,5 5 3 15 8 E 1015,3 75 60 0,0
13.06.2019 10:00:00 17,5 7,4 23,6 3 2 12 7 O 1015,6 - 60 0,0
13.06.2019 09:00:00 15,8 7,4 20,3 3 2 8 4 SO 1015,9 - 60 0,0
13.06.2019 08:00:00 14,4 7,0 17,0 2 1 8 5 SSO 1015,9 75 60 0,0
13.06.2019 07:00:00 11,3 7,4 10,9 3 1 7 4 O 1016,3 - 44 0,0
13.06.2019 06:00:00 8,5 6,5 5,7 4 2 7 4 NNO 1016,6 - 0 0,0
13.06.2019 05:00:00 10,5 6,8 6,2 1 1 13 7 OSO 1015,9 - 0 0,0
13.06.2019 04:00:00 9,8 7,4 7,0 7 4 13 7 ONO 1016,0 - 0 0,0
13.06.2019 03:00:00 12,7 6,3 10,0 8 4 13 7 OSO 1015,4 - 0 0,0
13.06.2019 02:00:00 14,1 6,9 12,2 9 5 16 9 OSO 1015,1 - 0 0,0
13.06.2019 01:00:00 15,7 7,5 13,2 6 3 14 7 SO 1014,6 - 0 0,0

tt = Temperatura
td = dewpoint
tt 5cm = Temperatura 5cm
ff = velocità del vento
fx = gusts
dd = direzione del vento
ppp = reduced air pressure
vv = visibility
sd = ore di luce
rr = precipitazioni

Stazioni seguenti

WeatherPro
AMSI
MeteoEarth